EN

Hourly Weather Abercorn

Today, 12 June, Saturday

Time Temperature Precipitation Wind Pressure Humidity
00:00 +13°C° 0 mm 1 mps 741 mmHg 88%
01:00 +12°C° 0 mm 1 mps 741 mmHg 90%
02:00 +12°C° 0 mm 1 mps 741 mmHg 91%
03:00 +11°C° 0 mm 1 mps 740 mmHg 92%
04:00 +11°C° 0 mm 1 mps 740 mmHg 93%
05:00 +13°C° 0 mm 1 mps 740 mmHg 86%
06:00 +14°C° 0 mm 0 mps 740 mmHg 78%
07:00 +16°C° 0 mm 0 mps 741 mmHg 70%
08:00 +20°C° 0 mm 1 mps 741 mmHg 65%
09:00 +21°C° 0 mm 1 mps 741 mmHg 60%
10:00 +23°C° 0 mm 2 mps 741 mmHg 54%
11:00 +23°C° 0 mm 2 mps 740 mmHg 51%
12:00 +24°C° 0 mm 2 mps 740 mmHg 47%
13:00 +24°C° 0 mm 3 mps 740 mmHg 44%
14:00 +24°C° 0 mm 3 mps 740 mmHg 44%
15:00 +24°C° 0 mm 2 mps 740 mmHg 44%
16:00 +24°C° 0 mm 2 mps 739 mmHg 44%
17:00 +21°C° 0 mm 2 mps 739 mmHg 54%
18:00 +20°C° 0 mm 1 mps 739 mmHg 63%
19:00 +18°C° 0 mm 1 mps 739 mmHg 72%
20:00 +16°C° 0 mm 1 mps 740 mmHg 73%
21:00 +15°C° 0 mm 1 mps 740 mmHg 74%
22:00 +14°C° 0 mm 1 mps 740 mmHg 75%
23:00 +14°C° 0 mm 1 mps 740 mmHg 74%

Tomorrow, 13 June, Sunday

Time Temperature Precipitation Wind Pressure Humidity
00:00 +14°C° 0 mm 1 mps 740 mmHg 73%
01:00 +14°C° 0 mm 1 mps 740 mmHg 72%
02:00 +14°C° 0 mm 1 mps 740 mmHg 73%
03:00 +13°C° 0 mm 1 mps 740 mmHg 74%
04:00 +13°C° 0 mm 1 mps 740 mmHg 75%
05:00 +14°C° 0 mm 1 mps 740 mmHg 71%
06:00 +16°C° 0 mm 1 mps 740 mmHg 68%
07:00 +19°C° 0 mm 1 mps 741 mmHg 64%
08:00 +20°C° 0 mm 1 mps 741 mmHg 58%
09:00 +21°C° 0 mm 2 mps 741 mmHg 52%
10:00 +23°C° 0 mm 2 mps 741 mmHg 47%
11:00 +24°C° 0 mm 2 mps 740 mmHg 45%
12:00 +24°C° 0 mm 2 mps 740 mmHg 44%
13:00 +25°C° 0 mm 2 mps 740 mmHg 42%
14:00 +25°C° 0 mm 2 mps 740 mmHg 45%
15:00 +24°C° 0 mm 1 mps 739 mmHg 47%
16:00 +24°C° 0 mm 1 mps 739 mmHg 50%
17:00 +23°C° 0 mm 1 mps 739 mmHg 56%
18:00 +21°C° 0 mm 1 mps 739 mmHg 61%
19:00 +20°C° 0 mm 1 mps 739 mmHg 67%
20:00 +20°C° 0 mm 1 mps 739 mmHg 66%
21:00 +19°C° 0 mm 1 mps 739 mmHg 65%
22:00 +19°C° 0 mm 1 mps 739 mmHg 64%
23:00 +19°C° 0 mm 1 mps 738 mmHg 63%

Day after tomorrow, 14 June, Monday

Time Temperature Precipitation Wind Pressure Humidity
00:00 +18°C° 0 mm 1 mps 738 mmHg 62%
01:00 +18°C° 0 mm 1 mps 738 mmHg 61%
02:00 +18°C° 0 mm 1 mps 738 mmHg 61%
03:00 +16°C° 0 mm 1 mps 738 mmHg 62%
04:00 +16°C° 0 mm 1 mps 738 mmHg 62%
05:00 +18°C° 0.2 mm 1 mps 738 mmHg 69%
06:00 +18°C° 0.2 mm 1 mps 738 mmHg 76%
07:00 +19°C° 0.2 mm 1 mps 738 mmHg 83%
08:00 +19°C° 0.4 mm 1 mps 738 mmHg 84%
09:00 +20°C° 0.4 mm 1 mps 738 mmHg 84%
10:00 +21°C° 0.4 mm 1 mps 738 mmHg 84%
11:00 +20°C° 0.3 mm 2 mps 738 mmHg 84%
12:00 +21°C° 0.3 mm 2 mps 738 mmHg 83%
13:00 +21°C° 0.3 mm 2 mps 737 mmHg 83%
14:00 +21°C° 1.5 mm 2 mps 737 mmHg 86%
15:00 +20°C° 1.5 mm 2 mps 737 mmHg 90%
16:00 +20°C° 1.5 mm 1 mps 737 mmHg 93%
17:00 +20°C° 3.4 mm 1 mps 737 mmHg 94%
18:00 +19°C° 3.4 mm 1 mps 737 mmHg 95%
19:00 +18°C° 3.4 mm 1 mps 738 mmHg 96%
20:00 +18°C° 0.6 mm 1 mps 738 mmHg 96%
21:00 +16°C° 0.6 mm 1 mps 737 mmHg 96%
22:00 +15°C° 0.6 mm 1 mps 737 mmHg 96%
23:00 +15°C° 0 mm 1 mps 737 mmHg 96%

15 June, Tuesday

Time Temperature Precipitation Wind Pressure Humidity
00:00 +13°C° 0 mm 0 mps 737 mmHg 96%
01:00 +13°C° 0 mm 0 mps 737 mmHg 96%
02:00 +12°C° 0 mm 0 mps 737 mmHg 96%
03:00 +13°C° 0 mm 1 mps 737 mmHg 96%
04:00 +13°C° 0 mm 1 mps 737 mmHg 97%
05:00 +14°C° 0.1 mm 1 mps 737 mmHg 96%
06:00 +15°C° 0.1 mm 1 mps 737 mmHg 96%
07:00 +16°C° 0.1 mm 1 mps 737 mmHg 95%
08:00 +16°C° 0.3 mm 2 mps 737 mmHg 94%
09:00 +16°C° 0.3 mm 2 mps 737 mmHg 93%
10:00 +16°C° 0.3 mm 3 mps 738 mmHg 92%
11:00 +17°C° 0.5 mm 3 mps 738 mmHg 92%
12:00 +17°C° 0.5 mm 3 mps 738 mmHg 91%
13:00 +18°C° 0.5 mm 4 mps 738 mmHg 91%
14:00 +18°C° 0.7 mm 3 mps 738 mmHg 89%
15:00 +19°C° 0.7 mm 3 mps 738 mmHg 87%
16:00 +19°C° 0.7 mm 3 mps 738 mmHg 85%
17:00 +18°C° 0.1 mm 2 mps 738 mmHg 81%
18:00 +17°C° 0.1 mm 2 mps 738 mmHg 78%
19:00 +16°C° 0.1 mm 2 mps 739 mmHg 74%
20:00 +15°C° 0 mm 2 mps 739 mmHg 78%
21:00 +13°C° 0 mm 2 mps 739 mmHg 81%
22:00 +11°C° 0 mm 1 mps 739 mmHg 85%
23:00 +11°C° 0 mm 1 mps 739 mmHg 84%

16 June, Wednesday

Time Temperature Precipitation Wind Pressure Humidity
00:00 +10°C° 0 mm 1 mps 739 mmHg 84%
01:00 +9°C° 0 mm 1 mps 739 mmHg 83%
02:00 +9°C° 0 mm 1 mps 739 mmHg 84%
03:00 +7°C° 0 mm 2 mps 739 mmHg 85%
04:00 +7°C° 0 mm 2 mps 739 mmHg 86%
05:00 +9°C° 0 mm 2 mps 739 mmHg 78%
06:00 +10°C° 0 mm 3 mps 740 mmHg 71%
07:00 +12°C° 0 mm 3 mps 740 mmHg 63%
08:00 +13°C° 0 mm 4 mps 740 mmHg 61%
09:00 +15°C° 0 mm 4 mps 740 mmHg 59%
10:00 +16°C° 0 mm 5 mps 740 mmHg 57%
11:00 +17°C° 0.1 mm 4 mps 740 mmHg 60%
12:00 +17°C° 0.1 mm 4 mps 740 mmHg 63%
13:00 +17°C° 0.1 mm 4 mps 739 mmHg 66%
14:00 +18°C° 0.1 mm 3 mps 740 mmHg 63%
15:00 +18°C° 0.1 mm 3 mps 740 mmHg 60%
16:00 +19°C° 0.1 mm 3 mps 740 mmHg 58%
17:00 +18°C° 0 mm 2 mps 740 mmHg 63%
18:00 +17°C° 0 mm 2 mps 740 mmHg 67%
19:00 +15°C° 0 mm 1 mps 741 mmHg 72%
20:00 +14°C° 0 mm 1 mps 741 mmHg 77%
21:00 +13°C° 0 mm 1 mps 741 mmHg 82%
22:00 +12°C° 0 mm 1 mps 741 mmHg 87%
23:00 +11°C° 0 mm 1 mps 742 mmHg 88%

17 June, Thursday

Time Temperature Precipitation Wind Pressure Humidity
00:00 +11°C° 0 mm 1 mps 742 mmHg 89%
01:00 +11°C° 0 mm 1 mps 742 mmHg 90%
02:00 +10°C° 0 mm 1 mps 742 mmHg 91%
03:00 +10°C° 0 mm 1 mps 742 mmHg 92%
04:00 +10°C° 0 mm 1 mps 742 mmHg 93%
05:00 +12°C° 0 mm 1 mps 743 mmHg 86%
06:00 +14°C° 0 mm 1 mps 743 mmHg 79%
07:00 +16°C° 0 mm 1 mps 743 mmHg 72%
08:00 +17°C° 0 mm 2 mps 743 mmHg 65%
09:00 +19°C° 0 mm 2 mps 743 mmHg 58%
10:00 +21°C° 0 mm 2 mps 743 mmHg 51%
11:00 +21°C° 0 mm 3 mps 743 mmHg 48%
12:00 +22°C° 0 mm 3 mps 743 mmHg 45%
13:00 +22°C° 0 mm 3 mps 743 mmHg 43%
14:00 +22°C° 0 mm 3 mps 743 mmHg 44%
15:00 +22°C° 0 mm 3 mps 742 mmHg 45%
16:00 +23°C° 0 mm 2 mps 742 mmHg 47%
17:00 +21°C° 0 mm 2 mps 742 mmHg 55%
18:00 +20°C° 0 mm 1 mps 742 mmHg 64%
19:00 +16°C° 0 mm 0 mps 742 mmHg 73%
20:00 +16°C° 0 mm 1 mps 742 mmHg 73%
21:00 +15°C° 0 mm 1 mps 743 mmHg 73%
22:00 +14°C° 0 mm 1 mps 743 mmHg 73%
23:00 +14°C° 0 mm 1 mps 743 mmHg 73%
Show more